Traverse City, MI

4:39 PM EDT on April 26, 2017 (GMT -0400)
Cherry Capital

Weather History for KTVC - May, 2013

Change the Weather History Date:

Monday, May 6, 2013

  Actual Average Record
Temperature  
Mean Temperature 55 °F 50 °F  
Max Temperature 70 °F 63 °F 89 °F (1959)
Min Temperature 39 °F 38 °F 20 °F (1968)
Degree Days  
Heating Degree Days 10 15  
Month to date heating degree days 60 95  
Since 1 July heating degree days 6719 7162  
Cooling Degree Days 0 0  
Month to date cooling degree days 0 0  
Year to date cooling degree days 2 3  
Growing Degree Days 2 (Base 50)    
Moisture  
Dew Point 38 °F    
Average Humidity 58    
Maximum Humidity 85    
Minimum Humidity 31    
Precipitation  
Precipitation 0.00 in 0.08 in 1.45 in (1983)
Month to date precipitation 0.03 0.48  
Year to date precipitation 9.71 9.44  
Sea Level Pressure  
Sea Level Pressure 30.05 in    
Wind  
Wind Speed 3 mph (NNE)    
Max Wind Speed 12 mph    
Max Gust Speed 15 mph    
Visibility 10 miles    
Events      
T = Trace of Precipitation, MM = Missing Value Source: NWS Daily Summary

Daily Weather History Graph

Daily Weather History Graph

Search for Another Location

Airport or City:

Trip Planner

Search our weather history database for the weather conditions in past years. The results will help you decide how hot, cold, wet, or windy it might be!

Date:

Astronomy

May. 06, 2013 Rise Set
Actual Time 6:24 AM EDT 8:53 PM EDT
Civil Twilight 5:52 AM EDT 9:26 PM EDT
Nautical Twilight 5:11 AM EDT 10:07 PM EDT
Astronomical Twilight 4:24 AM EDT 10:54 PM EDT
Moon 4:34 AM EDT (5/6) 5:46 PM EDT (5/6)
Length of Visible Light 15h 34m
Length of Day
14h 28m
Waning Crescent, 11% of the Moon is Illuminated
May 6
Waning Crescent
May 9
New
May 18
First Quarter
May 25
Full
May 31
Last Quarter

Hourly Weather History & Observations

Time (EDT) Temp. Dew Point Humidity Pressure Visibility Wind Dir Wind Speed Gust Speed Precip Events Conditions
12:53 AM 45.0 °F 37.9 °F 76% 30.07 in 10.0 mi Calm Calm - N/A   Clear
1:53 AM 45.0 °F 37.9 °F 76% 30.07 in 10.0 mi Calm Calm - N/A   Clear
2:53 AM 43.0 °F 37.0 °F 80% 30.06 in 10.0 mi Calm Calm - N/A   Clear
3:53 AM 43.0 °F 37.9 °F 82% 30.06 in 10.0 mi Calm Calm - N/A   Clear
4:53 AM 42.1 °F 37.0 °F 82% 30.07 in 10.0 mi Calm Calm - N/A   Clear
5:53 AM 39.0 °F 36.0 °F 89% 30.08 in 10.0 mi Calm Calm - N/A   Clear
6:53 AM 39.9 °F 36.0 °F 86% 30.09 in 10.0 mi Calm Calm - N/A   Scattered Clouds
7:53 AM 44.1 °F 39.9 °F 85% 30.10 in 10.0 mi Calm Calm - N/A   Scattered Clouds
8:53 AM 53.1 °F 41.0 °F 64% 30.11 in 10.0 mi Calm Calm - N/A   Scattered Clouds
9:53 AM 57.9 °F 42.1 °F 56% 30.10 in 10.0 mi NE 3.5 mph - N/A   Mostly Cloudy
10:53 AM 61.0 °F 39.0 °F 44% 30.10 in 10.0 mi NNE 4.6 mph - N/A   Mostly Cloudy
11:53 AM 63.0 °F 39.9 °F 43% 30.09 in 10.0 mi NNE 4.6 mph - N/A   Mostly Cloudy
12:53 PM 64.0 °F 41.0 °F 43% 30.07 in 10.0 mi ENE 3.5 mph - N/A   Mostly Cloudy
1:53 PM 66.0 °F 37.9 °F 36% 30.05 in 10.0 mi NNE 6.9 mph - N/A   Mostly Cloudy
2:53 PM 59.0 °F 37.9 °F 46% 30.05 in 10.0 mi NNE 10.4 mph - N/A   Mostly Cloudy
3:53 PM 59.0 °F 37.9 °F 46% 30.03 in 10.0 mi NNE 8.1 mph - N/A   Mostly Cloudy
4:53 PM 61.0 °F 37.0 °F 41% 30.01 in 10.0 mi NNE 9.2 mph - N/A   Mostly Cloudy
5:53 PM 60.1 °F 37.0 °F 42% 30.01 in 10.0 mi NNE 5.8 mph - N/A   Mostly Cloudy
6:53 PM 64.9 °F 33.1 °F 31% 30.00 in 10.0 mi North 8.1 mph - N/A   Mostly Cloudy
7:53 PM 64.9 °F 37.0 °F 36% 30.00 in 10.0 mi North 3.5 mph - N/A   Mostly Cloudy
8:53 PM 57.9 °F 37.0 °F 46% 30.01 in 10.0 mi WSW 3.5 mph - N/A   Mostly Cloudy
9:53 PM 57.0 °F 36.0 °F 45% 30.03 in 10.0 mi Calm Calm - N/A   Mostly Cloudy
10:53 PM 52.0 °F 39.0 °F 61% 30.03 in 10.0 mi Calm Calm - N/A   Clear
11:53 PM 50.0 °F 39.9 °F 68% 30.03 in 10.0 mi Calm Calm - N/A   Clear